Location: *
(58.4167°N, 22.5000°E)
Time: 13:25:11
(UTC+00:00)

Cosmos 1602 Rocket - Pass Details

Date: 22 September 2019
Orbit: 603 x 634 km, 82.5° (Epoch: 17 October)

Event Time Altitude Azimuth Distance (km) Brightness Sun altitude
Rises 18:41:48 0° 345° (NNW) 2,895 7.7 -17.2°
Reaches altitude 10° 18:44:03 10° 343° (NNW) 1,981 6.8 -17.4°
Maximum altitude 18:48:24 69° 261° (W) 656 3.8 -17.9°
Enters shadow 18:51:23 19° 181° (S) 1,440 5.1 -18.3°
